sat.trackr.live / text

‹ back to catalog

STARLINK-5702

NORAD 55622 · 2023-020BF

PAYLOAD ACTIVE UNKNOWN

§ Identity

Operator
Country
US
Launch date
2023-02-12
Launch site
AFETR
Launch vehicle
Mass (kg)
RCS (m²)

Purposes: comms

External: N2YO · Heavens-Above · Gunter

§ Orbital elements

Epoch: 2026-09-20T21:32:48.077088Z

Period
94.27 min
Inclination
43.0040°
Eccentricity
0.0001247
Mean motion
15.27579060 rev/d
Perigee alt
482.2 km
Apogee alt
483.9 km
Semi-major
6,861.2 km
B*
7.2951e-6
RAAN
331.8155°
Arg perigee
275.3994°
Mean anomaly
84.6716°
Rev number
19,889

§ Raw data

STARLINK-57021 55622U 23020BF  26263.89777867 -.00000061  00000+0  72951-5 0  99912 55622  43.0040 331.8155 0001247 275.3994  84.6716 15.27579060198891

JSON: /api/v1/satellites/55622 · /tle

For live sub-satellite position, see the globe view (requires WebGL).

§ Visibility from observer

Set your observer location to see the next 7 days of passes ≥ 10°. The values pass through the URL so the page stays shareable.

No JS? Fill the form by hand. The geolocation button needs JavaScript.